Clearwater, FL

12:13 PM EST on February 14, 2016 (GMT -0500)
Saint Petersburg-Clearwater International

Weather History for KPIE - May, 2013

Change the Weather History Date:

Thursday, May 2, 2013

  Actual Average (KTPA) Record (KTPA)
Temperature  
Mean Temperature 73 °F 75 °F  
Max Temperature 79 °F 85 °F 97 °F (1990)
Min Temperature 68 °F 66 °F 52 °F (1999)
Degree Days  
Heating Degree Days 0 0  
Month to date heating degree days 0  
Since 1 July heating degree days 538  
Cooling Degree Days 8 11  
Month to date cooling degree days 21  
Year to date cooling degree days 481  
Growing Degree Days 23 (Base 50)    
Moisture  
Dew Point 67 °F    
Average Humidity 83    
Maximum Humidity 90    
Minimum Humidity 74    
Precipitation  
Precipitation 0.03 in 0.05 in 3.11 in (2014)
Month to date precipitation 0.10  
Year to date precipitation 10.20  
Sea Level Pressure  
Sea Level Pressure 29.90 in    
Wind  
Wind Speed 8 mph (ENE)    
Max Wind Speed 15 mph    
Max Gust Speed 20 mph    
Visibility 10 miles    
Events Rain , Thunderstorm    
T = Trace of Precipitation, MM = Missing Value Source: NWS Daily Summary

Daily Weather History Graph

Daily Weather History Graph

Search for Another Location

Airport or City:

Trip Planner

Search our weather history database for the weather conditions in past years. The results will help you decide how hot, cold, wet, or windy it might be!

Date:

Astronomy

May. 02, 2013 Rise Set
Actual Time 6:49 AM EDT 8:05 PM EDT
Civil Twilight 6:25 AM EDT 8:30 PM EDT
Nautical Twilight 5:55 AM EDT 9:00 PM EDT
Astronomical Twilight 5:25 AM EDT 9:30 PM EDT
Moon 1:58 AM EDT (5/2) 1:29 PM EDT (5/2)
Length of Visible Light 14h 05m
Length of Day
13h 15m
Waning Gibbous, 48% of the Moon is Illuminated
May 2
Waning Gibbous
May 9
New
May 18
First Quarter
May 25
Full
May 31
Last Quarter

Hourly Weather History & Observations

Time (EDT) Temp. Dew Point Humidity Pressure Visibility Wind Dir Wind Speed Gust Speed Precip Events Conditions
12:27 AM 71.6 °F 66.2 °F 83% 29.98 in 10.0 mi ENE 8.1 mph - N/A   Overcast
12:53 AM 71.1 °F 66.9 °F 87% 29.97 in 10.0 mi ENE 8.1 mph - N/A   Overcast
1:53 AM 71.1 °F 66.9 °F 87% 29.96 in 10.0 mi East 9.2 mph - N/A   Mostly Cloudy
2:08 AM 69.8 °F 64.4 °F 83% 29.95 in 10.0 mi ENE 15.0 mph - 0.00 in Rain Light Rain
2:17 AM 69.8 °F 64.4 °F 83% 29.95 in 10.0 mi ENE 12.7 mph 19.6 mph 0.00 in   Overcast
2:50 AM 69.8 °F 64.4 °F 83% 29.94 in 10.0 mi ENE 10.4 mph - 0.00 in   Overcast
2:53 AM 69.1 °F 64.9 °F 87% 29.94 in 10.0 mi ENE 8.1 mph - 0.00 in   Overcast
3:03 AM 69.8 °F 64.4 °F 83% 29.94 in 10.0 mi ENE 9.2 mph - N/A   Overcast
3:53 AM 70.0 °F 66.0 °F 87% 29.93 in 10.0 mi ENE 11.5 mph - N/A   Overcast
4:00 AM 69.8 °F 66.2 °F 88% 29.93 in 10.0 mi ENE 11.5 mph 18.4 mph N/A   Overcast
4:53 AM 68.0 °F 64.9 °F 90% 29.93 in 10.0 mi ENE 11.5 mph - N/A   Overcast
5:53 AM 68.0 °F 64.0 °F 87% 29.94 in 10.0 mi East 10.4 mph - N/A   Overcast
6:53 AM 69.1 °F 64.9 °F 87% 29.93 in 10.0 mi East 6.9 mph - N/A   Overcast
7:04 AM 69.8 °F 64.4 °F 83% 29.93 in 10.0 mi East 9.2 mph - N/A   Overcast
7:53 AM 70.0 °F 64.9 °F 84% 29.94 in 10.0 mi East 6.9 mph - N/A   Overcast
8:12 AM 69.8 °F 64.4 °F 83% 29.93 in 10.0 mi ENE 10.4 mph - N/A   Overcast
8:53 AM 71.1 °F 64.9 °F 81% 29.94 in 10.0 mi ENE 9.2 mph - N/A   Overcast
9:53 AM 71.6 °F 66.2 °F 83% 29.94 in 10.0 mi East 11.5 mph - N/A   Overcast
10:12 AM 71.6 °F 66.2 °F 83% 29.94 in 10.0 mi East 6.9 mph - N/A   Overcast
10:19 AM 71.6 °F 66.2 °F 83% 29.94 in 10.0 mi East 6.9 mph - N/A   Overcast
10:53 AM 72.0 °F 66.0 °F 81% 29.95 in 10.0 mi East 6.9 mph - N/A   Overcast
11:00 AM 73.4 °F 66.2 °F 78% 29.95 in 10.0 mi East 9.2 mph - N/A   Overcast
11:53 AM 73.0 °F 66.9 °F 81% 29.94 in 10.0 mi ENE 4.6 mph - N/A   Overcast
12:53 PM 75.0 °F 66.9 °F 76% 29.91 in 10.0 mi NE 4.6 mph - N/A   Overcast
1:23 PM 75.2 °F 68.0 °F 78% 29.90 in 10.0 mi East 6.9 mph - N/A   Overcast
1:53 PM 75.0 °F 68.0 °F 79% 29.90 in 10.0 mi East 6.9 mph - N/A   Overcast
2:53 PM 78.1 °F 69.1 °F 74% 29.88 in 10.0 mi ENE 4.6 mph - N/A   Overcast
3:53 PM 78.1 °F 69.1 °F 74% 29.86 in 10.0 mi ENE 4.6 mph - N/A   Mostly Cloudy
4:32 PM 77.0 °F 69.8 °F 78% 29.85 in 10.0 mi ENE 4.6 mph - N/A   Overcast
4:53 PM 77.0 °F 69.1 °F 76% 29.84 in 10.0 mi Calm Calm - 0.02 in Rain Rain
5:05 PM 75.2 °F 69.8 °F 83% 29.84 in 10.0 mi ESE 6.9 mph - 0.01 in Rain , Thunderstorm Light Rain
5:14 PM 75.2 °F 71.6 °F 89% 29.84 in 10.0 mi East 3.5 mph - 0.01 in   Mostly Cloudy
5:26 PM 75.2 °F 69.8 °F 83% 29.84 in 10.0 mi East 5.8 mph - 0.01 in   Mostly Cloudy
5:53 PM 77.0 °F 69.1 °F 76% 29.84 in 10.0 mi ENE 6.9 mph - 0.01 in   Overcast
6:16 PM 75.2 °F 68.0 °F 78% 29.83 in 10.0 mi NE 6.9 mph - N/A Thunderstorm Overcast
6:46 PM 75.2 °F 68.0 °F 78% 29.83 in 10.0 mi ENE 3.5 mph - N/A   Overcast
6:53 PM 75.0 °F 68.0 °F 79% 29.83 in 10.0 mi Calm Calm - N/A   Mostly Cloudy
7:53 PM 75.0 °F 68.0 °F 79% 29.83 in 10.0 mi Calm Calm - N/A   Mostly Cloudy
8:53 PM 73.9 °F 69.1 °F 85% 29.84 in 10.0 mi NE 5.8 mph - N/A   Clear
9:50 PM 73.4 °F 69.8 °F 88% 29.85 in 10.0 mi ENE 5.8 mph - N/A   Mostly Cloudy
9:53 PM 73.9 °F 69.1 °F 85% 29.85 in 10.0 mi ENE 5.8 mph - N/A   Mostly Cloudy
10:05 PM 73.4 °F 69.8 °F 88% 29.85 in 10.0 mi East 6.9 mph - N/A   Mostly Cloudy
10:53 PM 73.0 °F 69.1 °F 87% 29.86 in 10.0 mi East 5.8 mph - N/A   Overcast
11:10 PM 73.4 °F 68.0 °F 83% 29.85 in 10.0 mi ESE 3.5 mph - N/A   Scattered Clouds
11:53 PM 71.1 °F 68.0 °F 90% 29.84 in 10.0 mi Calm Calm - N/A   Partly Cloudy